�N����,����,�~����,�C��,���x,�C��,����,���ϕ���,�ő�u�ԕ���,�ő厞����,���˗�,�I�_���x,�n�����x,�ő啗���N��,DTYPE
"24/02/03","00:10",0.0,3.6,80.4,1021.3,336.5,1.5,2.1,355.5,0.00,0.6,6.9,"00:04:54",1
"24/02/03","00:20",0.0,3.6,80.4,1022.0,292.1,1.6,2.4,327.9,0.00,0.6,7.2,"00:12:44",1
"24/02/03","00:30",0.0,3.6,80.7,1022.3,307.9,1.5,2.2,326.8,0.00,0.6,7.2,"00:28:02",1
"24/02/03","00:40",0.0,3.5,80.9,1022.5,303.5,1.6,2.6,335.8,0.00,0.6,7.0,"00:39:30",1
"24/02/03","00:50",0.0,3.4,81.1,1022.3,320.5,1.8,2.4,301.8,0.00,0.5,7.1,"00:44:22",1
"24/02/03","01:00",0.0,3.5,80.9,1021.5,310.6,2.1,3.5,310.1,0.00,0.6,7.0,"00:59:08",1
"24/02/03","01:10",0.0,3.8,80.1,1021.8,317.8,2.3,3.4,340.0,0.00,0.7,7.0,"01:01:28",1
"24/02/03","01:20",0.0,3.7,79.7,1021.8,302.1,1.2,1.8,328.8,0.00,0.6,7.0,"01:15:42",1
"24/02/03","01:30",0.0,3.8,79.2,1022.0,298.8,1.5,2.1,337.8,0.00,0.6,6.7,"01:22:42",1
"24/02/03","01:40",0.0,3.9,78.6,1022.5,316.3,2.0,2.6,340.8,0.00,0.6,6.9,"01:38:00",1
"24/02/03","01:50",0.0,3.8,78.0,1022.3,295.6,1.1,1.4,311.8,0.00,0.4,6.9,"01:48:08",1
"24/02/03","02:00",0.0,3.6,78.5,1022.0,326.6,1.5,2.4,311.7,0.00,0.3,6.8,"01:55:26",1
"24/02/03","02:10",0.0,3.4,79.0,1022.3,321.5,1.8,2.9,324.1,0.00,0.1,6.8,"02:08:58",1
"24/02/03","02:20",0.0,3.9,77.4,1022.3,309.1,3.1,3.9,318.4,0.00,0.4,6.9,"02:14:46",1
"24/02/03","02:30",0.0,4.2,74.5,1022.0,315.4,1.8,2.9,296.5,0.00,0.1,7.0,"02:27:16",1
"24/02/03","02:40",0.0,4.4,71.2,1022.5,333.3,2.5,3.6,316.8,0.00,-0.3,6.9,"02:34:38",1
"24/02/03","02:50",0.0,4.6,68.4,1022.5,322.1,2.8,5.6,310.0,0.00,-0.7,6.9,"02:47:42",1
"24/02/03","03:00",0.0,4.3,68.6,1022.5,322.8,1.8,2.5,321.7,0.00,-0.9,6.9,"02:58:18",1
"24/02/03","03:10",0.0,3.9,69.4,1022.0,331.9,1.6,2.1,330.5,0.00,-1.1,6.7,"03:05:54",1
"24/02/03","03:20",0.0,3.6,71.0,1022.0,315.7,1.6,2.1,328.6,0.00,-1.1,6.8,"03:11:20",1
"24/02/03","03:30",0.0,3.5,72.4,1022.0,302.0,1.5,1.9,303.1,0.00,-1.0,6.7,"03:27:32",1
"24/02/03","03:40",0.0,3.4,74.2,1021.8,337.2,1.6,2.1,342.2,0.00,-0.7,7.1,"03:31:44",1
"24/02/03","03:50",0.0,3.2,75.6,1021.8,314.4,1.7,2.2,320.9,0.00,-0.6,6.5,"03:47:38",1
"24/02/03","04:00",0.0,3.2,76.9,1022.0,309.0,1.8,2.4,340.8,0.00,-0.4,6.8,"03:51:30",1
"24/02/03","04:10",0.0,3.1,77.7,1022.0,284.6,1.3,1.8,306.4,0.00,-0.4,6.7,"04:05:34",1
"24/02/03","04:20",0.0,3.3,77.6,1021.8,308.8,1.5,2.2,295.8,0.00,-0.2,6.7,"04:11:04",1
"24/02/03","04:30",0.0,3.3,77.8,1022.0,281.6,1.2,2.0,340.9,0.00,-0.2,6.9,"04:20:40",1
"24/02/03","04:40",0.0,3.4,78.0,1022.0,289.0,1.5,2.2,353.2,0.00,0.0,6.7,"04:38:56",1
"24/02/03","04:50",0.0,3.4,78.0,1022.3,317.3,1.6,2.2,329.4,0.00,0.0,6.6,"04:46:34",1
"24/02/03","05:00",0.0,3.3,78.4,1022.3,313.3,1.6,2.5,319.8,0.00,-0.1,6.7,"04:57:38",1
"24/02/03","05:10",0.0,3.2,78.9,1022.7,328.5,1.2,2.5,316.4,0.00,-0.1,6.8,"05:09:30",1
"24/02/03","05:20",0.0,3.2,79.3,1022.7,301.6,1.3,1.9,258.1,0.00,0.0,6.6,"05:10:34",1
"24/02/03","05:30",0.0,3.3,79.6,1022.7,312.4,1.2,1.9,344.8,0.00,0.2,6.6,"05:27:32",1
"24/02/03","05:40",0.0,3.2,79.9,1022.5,313.2,1.5,2.1,330.2,0.00,0.1,6.6,"05:37:44",1
"24/02/03","05:50",0.0,3.0,80.3,1022.5,277.7,0.7,1.4,269.9,0.00,0.0,6.8,"05:40:16",1
"24/02/03","06:00",0.0,3.0,80.7,1022.7,307.1,1.3,1.8,341.4,0.00,0.1,6.3,"05:57:24",1
"24/02/03","06:10",0.0,3.1,81.1,1022.7,309.7,1.8,2.4,317.8,0.00,0.2,6.7,"06:01:26",1
"24/02/03","06:20",0.0,3.2,81.3,1022.3,314.9,1.7,2.5,328.4,0.00,0.3,6.7,"06:12:40",1
"24/02/03","06:30",0.0,3.2,81.4,1022.3,308.3,1.6,2.4,327.2,0.00,0.4,6.6,"06:27:10",1
"24/02/03","06:40",0.0,3.3,81.6,1022.7,300.3,1.7,2.4,326.5,0.00,0.5,6.5,"06:32:22",1
"24/02/03","06:50",0.0,3.3,81.6,1022.5,292.8,1.7,2.5,266.0,0.00,0.5,6.6,"06:45:42",1
"24/02/03","07:00",0.0,3.3,81.5,1022.3,304.1,2.0,2.4,327.5,0.00,0.5,6.6,"06:54:46",1
"24/02/03","07:10",0.0,3.5,81.2,1023.2,302.5,2.1,2.4,300.7,0.00,0.6,6.7,"07:09:10",1
"24/02/03","07:20",0.0,3.6,81.0,1023.2,314.7,2.7,3.4,313.0,0.00,0.7,6.6,"07:11:10",1
"24/02/03","07:30",0.0,3.6,81.0,1022.7,313.0,1.8,2.5,336.0,0.00,0.7,6.6,"07:21:42",1
"24/02/03","07:40",0.0,3.8,81.1,1023.0,322.1,2.0,2.7,321.6,0.00,0.9,6.5,"07:39:16",1
"24/02/03","07:50",0.0,4.0,81.2,1022.3,307.5,1.8,2.5,326.4,0.00,1.1,6.5,"07:48:42",1
"24/02/03","08:00",0.0,4.2,81.0,1022.7,306.3,1.7,2.8,320.8,0.01,1.3,6.7,"07:54:10",1
"24/02/03","08:10",0.0,4.4,80.8,1023.2,301.6,2.0,2.9,316.9,0.02,1.4,6.7,"08:05:42",1
"24/02/03","08:20",0.0,4.7,80.0,1023.0,301.0,2.5,3.4,318.1,0.03,1.6,6.6,"08:15:58",1
"24/02/03","08:30",0.0,5.0,78.8,1023.4,288.4,2.2,3.5,326.5,0.05,1.7,6.7,"08:21:06",1
"24/02/03","08:40",0.0,5.4,77.4,1023.9,287.5,2.5,3.4,318.6,0.07,1.8,6.7,"08:36:56",1
"24/02/03","08:50",0.0,5.7,75.6,1023.4,300.7,2.5,4.2,328.0,0.07,1.8,6.5,"08:42:08",1
"24/02/03","09:00",0.0,5.9,74.3,1023.4,292.8,2.0,2.8,315.9,0.09,1.7,6.8,"08:51:28",1
"24/02/03","09:10",0.0,6.1,73.0,1024.1,288.1,2.2,3.2,297.2,0.12,1.7,6.5,"09:01:20",1
"24/02/03","09:20",0.0,6.2,71.5,1023.9,314.7,3.4,5.7,304.4,0.08,1.5,6.8,"09:19:20",1
"24/02/03","09:30",0.0,6.4,70.0,1024.1,334.5,3.2,5.6,314.4,0.10,1.4,6.6,"09:22:00",1
"24/02/03","09:40",0.0,6.4,68.7,1024.4,332.7,3.6,7.2,334.4,0.10,1.1,6.6,"09:34:40",1
"24/02/03","09:50",0.0,6.6,67.7,1024.4,349.0,3.0,5.9,333.2,0.12,1.1,6.9,"09:47:52",1
"24/02/03","10:00",0.0,6.7,67.4,1024.4,340.2,4.2,7.4,341.7,0.14,1.1,6.9,"09:55:12",1
"24/02/03","10:10",0.0,6.7,65.9,1024.1,342.6,3.4,7.5,342.7,0.15,0.8,6.7,"10:04:40",1
"24/02/03","10:20",0.0,6.8,65.2,1024.4,347.9,3.1,5.8,320.8,0.14,0.8,7.0,"10:12:40",1
"24/02/03","10:30",0.0,6.9,64.8,1024.4,337.8,3.7,6.7,311.2,0.18,0.8,6.9,"10:22:08",1
"24/02/03","10:40",0.0,7.1,64.3,1024.6,347.0,3.6,6.5,339.1,0.20,0.9,7.0,"10:38:40",1
"24/02/03","10:50",0.0,7.2,63.1,1024.4,352.7,3.2,5.7,11.0,0.24,0.7,6.7,"10:49:52",1
"24/02/03","11:00",0.0,8.0,61.6,1024.1,0.5,2.5,5.1,49.4,0.48,1.1,7.0,"10:59:06",1
"24/02/03","11:10",0.0,8.5,59.2,1023.9,359.7,2.2,5.1,341.8,0.55,1.0,7.0,"11:04:24",1
"24/02/03","11:20",0.0,8.5,59.2,1023.4,356.3,3.2,5.0,5.2,0.53,1.0,6.8,"11:14:04",1
"24/02/03","11:30",0.0,8.8,58.5,1023.2,340.3,2.2,4.8,354.9,0.52,1.2,7.1,"11:20:44",1
"24/02/03","11:40",0.0,9.3,56.7,1023.2,342.4,1.5,2.4,0.7,0.52,1.2,7.3,"11:31:16",1
"24/02/03","11:50",0.0,9.1,56.2,1022.7,317.4,1.7,2.7,342.3,0.53,0.9,7.2,"11:48:58",1
"24/02/03","12:00",0.0,9.5,55.6,1022.5,348.2,1.5,2.4,2.7,0.54,1.1,7.3,"11:50:36",1
"24/02/03","12:10",0.0,9.4,55.4,1022.0,348.2,2.6,3.5,344.2,0.54,1.0,7.3,"12:05:10",1
"24/02/03","12:20",0.0,9.7,54.1,1022.0,333.6,2.3,5.2,335.7,0.54,0.9,7.6,"12:14:58",1
"24/02/03","12:30",0.0,10.0,53.1,1021.8,354.6,2.1,4.5,353.4,0.54,0.9,7.6,"12:22:34",1
"24/02/03","12:40",0.0,9.9,53.9,1021.5,344.8,2.1,4.3,332.0,0.52,1.0,7.8,"12:32:42",1
"24/02/03","12:50",0.0,9.8,53.2,1021.3,341.4,3.2,5.0,310.0,0.53,0.8,7.8,"12:49:38",1
"24/02/03","13:00",0.0,9.9,55.0,1021.3,331.3,4.1,7.8,307.4,0.52,1.3,8.0,"12:52:10",1
"24/02/03","13:10",0.0,9.9,54.0,1021.3,339.5,3.1,4.9,337.4,0.46,1.1,8.0,"13:00:38",1
"24/02/03","13:20",0.0,9.7,54.5,1020.8,341.1,3.7,7.2,328.6,0.43,1.0,8.3,"13:17:18",1
"24/02/03","13:30",0.0,10.2,55.7,1020.8,329.9,3.1,4.8,318.1,0.42,1.8,8.3,"13:28:40",1
"24/02/03","13:40",0.0,10.3,54.1,1021.1,339.2,3.6,6.3,330.9,0.54,1.5,8.4,"13:30:58",1
"24/02/03","13:50",0.0,10.0,55.6,1021.1,336.9,3.2,6.4,331.1,0.40,1.6,8.4,"13:48:08",1
"24/02/03","14:00",0.0,9.6,55.9,1020.8,330.7,4.7,7.7,318.2,0.34,1.3,8.5,"13:59:26",1
"24/02/03","14:10",0.0,9.5,57.2,1021.1,326.5,5.2,9.0,325.0,0.33,1.5,8.6,"14:06:16",1
"24/02/03","14:20",0.0,9.0,57.3,1021.1,333.3,4.4,6.6,334.9,0.18,1.1,8.6,"14:10:42",1
"24/02/03","14:30",0.0,8.7,58.8,1020.8,342.7,4.9,8.6,2.8,0.18,1.1,8.5,"14:25:48",1
"24/02/03","14:40",0.0,8.6,58.5,1020.6,334.3,5.1,8.2,313.3,0.20,1.0,8.8,"14:35:00",1
"24/02/03","14:50",0.0,8.9,59.0,1021.1,339.3,5.1,8.1,346.0,0.24,1.4,8.9,"14:41:22",1
"24/02/03","15:00",0.0,8.6,58.7,1021.1,343.2,4.9,7.9,351.0,0.21,1.0,8.7,"14:53:54",1
"24/02/03","15:10",0.0,8.4,60.0,1021.1,337.9,4.5,8.6,342.2,0.15,1.1,8.7,"15:05:24",1
"24/02/03","15:20",0.0,8.5,59.9,1021.1,335.3,4.4,7.3,330.7,0.18,1.2,8.6,"15:18:30",1
"24/02/03","15:30",0.0,8.1,60.1,1021.3,343.2,4.4,7.1,329.9,0.11,0.9,8.7,"15:24:26",1
"24/02/03","15:40",0.0,7.8,61.4,1021.1,341.8,4.9,7.5,346.1,0.08,0.9,8.9,"15:39:12",1
"24/02/03","15:50",0.0,7.8,61.8,1020.8,341.9,4.6,7.8,338.0,0.06,1.0,8.8,"15:41:12",1
"24/02/03","16:00",0.0,7.7,62.2,1021.3,334.6,4.5,6.6,343.3,0.08,1.0,9.0,"15:58:00",1
"24/02/03","16:10",0.0,7.7,61.9,1021.1,344.7,3.7,7.9,335.4,0.09,0.9,8.9,"16:03:36",1
"24/02/03","16:20",0.0,7.6,62.5,1021.1,339.2,3.5,6.2,359.8,0.06,0.9,8.9,"16:15:44",1
"24/02/03","16:30",0.0,7.4,63.3,1021.1,338.9,4.2,8.9,344.3,0.04,0.9,8.8,"16:22:56",1
"24/02/03","16:40",0.0,7.2,63.6,1021.1,338.7,4.4,8.5,327.4,0.03,0.8,8.9,"16:36:48",1
"24/02/03","16:50",0.0,7.1,64.1,1020.8,334.5,4.6,8.5,342.3,0.01,0.8,8.6,"16:49:22",1
"24/02/03","17:00",0.0,7.0,64.7,1020.8,338.4,4.6,8.9,348.2,0.00,0.9,8.7,"16:52:00",1
"24/02/03","17:10",0.0,6.8,65.2,1020.6,341.1,4.4,8.2,316.4,0.00,0.8,8.8,"17:00:40",1
"24/02/03","17:20",0.0,6.7,65.3,1020.8,341.5,5.0,8.8,330.4,0.00,0.7,8.6,"17:11:20",1
"24/02/03","17:30",0.0,6.6,65.5,1020.8,336.1,4.5,9.1,341.8,0.00,0.6,8.7,"17:24:08",1
"24/02/03","17:40",0.0,6.4,65.7,1020.8,333.6,4.1,8.5,336.7,0.00,0.5,8.7,"17:36:08",1
"24/02/03","17:50",0.0,6.3,65.9,1020.6,342.8,4.2,6.7,329.7,0.00,0.4,8.8,"17:49:28",1
"24/02/03","18:00",0.0,6.2,66.4,1020.6,337.8,4.2,7.4,336.2,0.00,0.5,8.7,"17:59:54",1
"24/02/03","18:10",0.0,6.2,66.9,1020.4,332.9,3.9,6.3,336.9,0.00,0.6,8.7,"18:00:40",1
"24/02/03","18:20",0.0,6.2,67.2,1020.1,336.6,4.0,7.4,338.1,0.00,0.6,8.5,"18:17:36",1
"24/02/03","18:30",0.0,6.1,67.6,1020.6,336.2,4.1,6.6,328.2,0.00,0.6,8.5,"18:28:24",1
"24/02/03","18:40",0.0,6.1,67.8,1020.1,329.4,4.1,7.0,328.0,0.00,0.6,8.4,"18:31:52",1
"24/02/03","18:50",0.0,6.0,68.2,1020.4,323.9,3.7,6.7,326.9,0.00,0.6,8.4,"18:43:28",1
"24/02/03","19:00",0.0,6.0,68.4,1020.1,323.7,3.7,5.5,333.5,0.00,0.7,8.3,"18:57:52",1
"24/02/03","19:10",0.0,6.0,68.6,1020.4,322.9,4.4,6.5,323.1,0.00,0.7,8.4,"19:09:22",1
"24/02/03","19:20",0.0,6.1,68.7,1020.4,324.1,4.6,8.8,328.8,0.00,0.8,8.7,"19:11:12",1
"24/02/03","19:30",0.0,6.0,68.8,1020.4,324.6,4.6,6.6,314.7,0.00,0.8,8.3,"19:21:52",1
"24/02/03","19:40",0.0,6.1,68.7,1020.6,321.4,4.5,7.3,309.2,0.00,0.8,8.2,"19:38:48",1
"24/02/03","19:50",0.0,6.2,69.0,1020.6,320.1,3.6,6.5,320.5,0.00,1.0,8.3,"19:46:32",1
"24/02/03","20:00",0.0,6.1,69.2,1020.4,322.3,3.6,5.7,320.6,0.00,0.9,8.2,"19:52:08",1
"24/02/03","20:10",0.0,6.1,69.9,1020.6,324.0,3.7,6.4,316.5,0.00,1.1,8.3,"20:06:00",1
"24/02/03","20:20",0.0,6.1,70.4,1020.6,314.0,3.5,6.5,331.7,0.00,1.2,8.0,"20:13:38",1
"24/02/03","20:30",0.0,6.1,70.6,1020.4,322.3,4.5,7.7,316.7,0.00,1.2,8.1,"20:24:48",1
"24/02/03","20:40",0.0,6.0,71.1,1019.9,328.0,4.4,7.2,323.5,0.00,1.2,8.3,"20:34:30",1
"24/02/03","20:50",0.0,6.0,71.5,1020.1,328.5,4.5,6.8,333.1,0.00,1.3,8.3,"20:42:28",1
"24/02/03","21:00",0.0,6.0,71.9,1020.1,326.7,4.0,8.8,315.5,0.00,1.4,8.0,"20:55:32",1
"24/02/03","21:10",0.0,5.9,72.2,1019.9,332.5,3.9,6.8,351.3,0.00,1.3,8.2,"21:02:48",1
"24/02/03","21:20",0.0,5.9,72.5,1019.9,334.1,3.9,5.8,341.1,0.00,1.4,8.0,"21:12:40",1
"24/02/03","21:30",0.0,5.9,72.8,1020.1,331.3,3.9,6.7,310.5,0.00,1.4,8.1,"21:29:48",1
"24/02/03","21:40",0.0,6.0,73.0,1020.1,328.1,3.7,5.8,335.9,0.00,1.6,8.0,"21:30:24",1
"24/02/03","21:50",0.0,6.0,73.3,1020.6,331.0,3.9,7.1,339.3,0.00,1.6,8.2,"21:47:04",1
"24/02/03","22:00",0.0,6.0,73.6,1020.4,312.7,4.1,7.2,328.1,0.00,1.7,7.9,"21:52:12",1
"24/02/03","22:10",0.0,5.8,74.7,1020.4,321.7,3.4,5.2,326.7,0.00,1.7,7.9,"22:01:44",1
"24/02/03","22:20",0.2,5.6,76.1,1020.1,325.9,2.8,5.5,319.5,0.00,1.8,7.9,"22:18:48",1
"24/02/03","22:30",0.0,5.3,77.9,1020.4,322.0,2.8,4.5,319.2,0.00,1.8,8.0,"22:24:24",1
"24/02/03","22:40",0.2,5.0,79.9,1020.4,317.2,3.4,5.0,311.2,0.00,1.9,8.0,"22:31:44",1
"24/02/03","22:50",0.2,4.7,81.6,1019.9,321.3,3.2,4.9,335.3,0.00,1.9,8.0,"22:48:56",1
"24/02/03","23:00",0.0,4.6,83.3,1019.9,319.8,2.2,3.3,334.1,0.00,2.1,7.9,"22:51:52",1
"24/02/03","23:10",0.2,4.5,85.3,1019.7,315.7,2.3,3.4,315.9,0.00,2.3,7.9,"23:07:12",1
"24/02/03","23:20",0.0,4.3,87.0,1020.1,302.3,2.5,4.1,318.4,0.00,2.4,7.8,"23:16:40",1
"24/02/03","23:30",0.2,4.2,88.3,1020.1,314.9,2.1,3.3,333.0,0.00,2.5,7.7,"23:23:36",1
"24/02/03","23:40",0.0,4.0,89.3,1019.7,321.5,2.2,4.2,328.0,0.00,2.4,7.9,"23:31:14",1
"24/02/03","23:50",0.0,3.9,90.1,1019.4,327.9,1.7,2.5,323.6,0.00,2.5,7.8,"23:46:20",1
"24/02/03","24:00",0.0,3.8,90.9,1019.4,327.6,2.1,3.2,324.1,0.00,2.5,7.9,"23:59:42",1
